Météo par heure à Kismányok

Ce jour, 4 Mars, Jeudi

Heure Température Précipitation Vent Pression Humidité
00:00 +8°C° 0 mm 1 m/s 755 mmHg 64%
01:00 +7°C° 0 mm 1 m/s 755 mmHg 66%
02:00 +7°C° 0 mm 1 m/s 754 mmHg 68%
03:00 +6°C° 0 mm 1 m/s 754 mmHg 69%
04:00 +5°C° 0 mm 2 m/s 753 mmHg 71%
05:00 +5°C° 0 mm 2 m/s 753 mmHg 72%
06:00 +5°C° 0 mm 2 m/s 753 mmHg 74%
07:00 +4°C° 0 mm 2 m/s 752 mmHg 75%
08:00 +6°C° 0 mm 2 m/s 752 mmHg 69%
09:00 +8°C° 0 mm 3 m/s 752 mmHg 62%
10:00 +10°C° 0 mm 3 m/s 752 mmHg 55%
11:00 +11°C° 0 mm 3 m/s 751 mmHg 49%
12:00 +13°C° 0 mm 3 m/s 751 mmHg 44%
13:00 +14°C° 0 mm 3 m/s 750 mmHg 39%
14:00 +14°C° 0 mm 3 m/s 750 mmHg 39%
15:00 +14°C° 0 mm 3 m/s 749 mmHg 40%
16:00 +14°C° 0 mm 3 m/s 749 mmHg 41%
17:00 +12°C° 0 mm 3 m/s 748 mmHg 46%
18:00 +12°C° 0 mm 2 m/s 748 mmHg 51%
19:00 +9°C° 0 mm 2 m/s 748 mmHg 56%
20:00 +9°C° 0 mm 2 m/s 748 mmHg 58%
21:00 +9°C° 0 mm 3 m/s 748 mmHg 61%
22:00 +7°C° 0 mm 4 m/s 748 mmHg 64%
23:00 +7°C° 0 mm 4 m/s 748 mmHg 65%

Demain, 5 Mars, Vendredi

Heure Température Précipitation Vent Pression Humidité
00:00 +6°C° 0 mm 4 m/s 747 mmHg 66%
01:00 +6°C° 0 mm 5 m/s 747 mmHg 67%
02:00 +6°C° 0 mm 5 m/s 747 mmHg 70%
03:00 +6°C° 0 mm 5 m/s 747 mmHg 72%
04:00 +5°C° 0 mm 5 m/s 746 mmHg 75%
05:00 +5°C° 0 mm 4 m/s 747 mmHg 76%
06:00 +6°C° 0 mm 4 m/s 747 mmHg 76%
07:00 +6°C° 0 mm 4 m/s 747 mmHg 77%
08:00 +6°C° 0 mm 4 m/s 747 mmHg 75%
09:00 +7°C° 0 mm 4 m/s 747 mmHg 73%
10:00 +8°C° 0 mm 4 m/s 747 mmHg 71%
11:00 +8°C° 0.1 mm 4 m/s 747 mmHg 72%
12:00 +9°C° 0.1 mm 3 m/s 747 mmHg 73%
13:00 +9°C° 0.1 mm 3 m/s 748 mmHg 73%
14:00 +9°C° 0 mm 3 m/s 748 mmHg 73%
15:00 +9°C° 0 mm 3 m/s 748 mmHg 72%
16:00 +8°C° 0 mm 3 m/s 748 mmHg 71%
17:00 +7°C° 0 mm 4 m/s 749 mmHg 70%
18:00 +6°C° 0 mm 4 m/s 750 mmHg 69%
19:00 +6°C° 0 mm 5 m/s 750 mmHg 68%
20:00 +5°C° 0 mm 5 m/s 751 mmHg 69%
21:00 +3°C° 0 mm 5 m/s 752 mmHg 70%
22:00 +2°C° 0 mm 5 m/s 753 mmHg 71%
23:00 +2°C° 0 mm 5 m/s 754 mmHg 71%

Après-demain, 6 Mars, Samedi

Heure Température Précipitation Vent Pression Humidité
00:00 +3°C° 0 mm 4 m/s 755 mmHg 71%
01:00 +1°C° 0 mm 4 m/s 755 mmHg 71%
02:00 +1°C° 0 mm 4 m/s 756 mmHg 65%
03:00 +1°C° 0 mm 4 m/s 756 mmHg 59%
04:00 0°C° 0 mm 4 m/s 757 mmHg 52%
05:00 0°C° 0 mm 4 m/s 757 mmHg 56%
06:00 +1°C° 0 mm 3 m/s 758 mmHg 61%
07:00 0°C° 0 mm 3 m/s 759 mmHg 65%
08:00 +1°C° 0 mm 3 m/s 759 mmHg 59%
09:00 +2°C° 0 mm 3 m/s 759 mmHg 54%
10:00 +3°C° 0 mm 3 m/s 760 mmHg 48%
11:00 +4°C° 0 mm 3 m/s 760 mmHg 45%
12:00 +5°C° 0 mm 2 m/s 759 mmHg 41%
13:00 +6°C° 0 mm 2 m/s 759 mmHg 37%
14:00 +6°C° 0 mm 2 m/s 759 mmHg 36%
15:00 +6°C° 0 mm 2 m/s 759 mmHg 36%
16:00 +6°C° 0 mm 2 m/s 759 mmHg 35%
17:00 +5°C° 0 mm 2 m/s 759 mmHg 40%
18:00 +4°C° 0 mm 2 m/s 759 mmHg 45%
19:00 +4°C° 0 mm 1 m/s 759 mmHg 51%
20:00 +3°C° 0 mm 1 m/s 760 mmHg 53%
21:00 +3°C° 0 mm 1 m/s 760 mmHg 55%
22:00 +2°C° 0 mm 1 m/s 760 mmHg 58%
23:00 +2°C° 0 mm 1 m/s 760 mmHg 59%

7 Mars, Dimanche

Heure Température Précipitation Vent Pression Humidité
00:00 +1°C° 0 mm 0 m/s 760 mmHg 60%
01:00 0°C° 0 mm 0 m/s 759 mmHg 61%
02:00 0°C° 0 mm 0 m/s 759 mmHg 61%
03:00 0°C° 0 mm 0 m/s 759 mmHg 61%
04:00 0°C° 0 mm 0 m/s 758 mmHg 60%
05:00 0°C° 0 mm 0 m/s 758 mmHg 60%
06:00 0°C° 0 mm 0 m/s 758 mmHg 59%
07:00 +1°C° 0 mm 1 m/s 758 mmHg 58%
08:00 +3°C° 0 mm 1 m/s 758 mmHg 52%
09:00 +4°C° 0 mm 1 m/s 758 mmHg 47%
10:00 +4°C° 0 mm 2 m/s 757 mmHg 41%
11:00 +5°C° 0 mm 2 m/s 757 mmHg 39%
12:00 +6°C° 0 mm 2 m/s 756 mmHg 38%
13:00 +6°C° 0 mm 2 m/s 756 mmHg 36%
14:00 +6°C° 0 mm 2 m/s 755 mmHg 36%
15:00 +6°C° 0 mm 2 m/s 754 mmHg 37%
16:00 +7°C° 0 mm 2 m/s 754 mmHg 37%
17:00 +5°C° 0 mm 2 m/s 753 mmHg 42%
18:00 +4°C° 0 mm 2 m/s 753 mmHg 47%
19:00 +3°C° 0 mm 2 m/s 753 mmHg 52%
20:00 +3°C° 0 mm 2 m/s 753 mmHg 53%
21:00 +2°C° 0 mm 2 m/s 753 mmHg 54%
22:00 +2°C° 0 mm 2 m/s 753 mmHg 56%
23:00 +1°C° 0 mm 2 m/s 752 mmHg 56%

8 Mars, Lundi

Heure Température Précipitation Vent Pression Humidité
00:00 +1°C° 0 mm 2 m/s 752 mmHg 57%
01:00 +1°C° 0 mm 2 m/s 752 mmHg 58%
02:00 +1°C° 0 mm 1 m/s 751 mmHg 58%
03:00 +1°C° 0 mm 1 m/s 751 mmHg 58%
04:00 +1°C° 0 mm 1 m/s 751 mmHg 58%
05:00 +1°C° 0 mm 1 m/s 751 mmHg 58%
06:00 +1°C° 0 mm 1 m/s 750 mmHg 58%
07:00 +2°C° 0 mm 1 m/s 750 mmHg 57%
08:00 +3°C° 0 mm 1 m/s 750 mmHg 51%
09:00 +5°C° 0 mm 1 m/s 751 mmHg 45%
10:00 +7°C° 0 mm 1 m/s 751 mmHg 39%
11:00 +8°C° 0 mm 1 m/s 750 mmHg 37%
12:00 +9°C° 0 mm 1 m/s 750 mmHg 35%
13:00 +9°C° 0 mm 1 m/s 750 mmHg 33%
14:00 +9°C° 0 mm 1 m/s 750 mmHg 34%
15:00 +9°C° 0 mm 1 m/s 749 mmHg 34%
16:00 +9°C° 0 mm 1 m/s 749 mmHg 35%
17:00 +8°C° 0 mm 1 m/s 749 mmHg 39%
18:00 +6°C° 0 mm 0 m/s 749 mmHg 43%
19:00 +5°C° 0 mm 0 m/s 749 mmHg 47%
20:00 +6°C° 0 mm 1 m/s 750 mmHg 50%
21:00 +5°C° 0 mm 1 m/s 750 mmHg 52%
22:00 +5°C° 0 mm 1 m/s 750 mmHg 55%
23:00 +4°C° 0 mm 1 m/s 751 mmHg 57%

9 Mars, Mardi

Heure Température Précipitation Vent Pression Humidité
00:00 +3°C° 0 mm 2 m/s 751 mmHg 60%
01:00 +2°C° 0 mm 2 m/s 751 mmHg 63%
02:00 +2°C° 0 mm 2 m/s 751 mmHg 66%
03:00 +1°C° 0 mm 2 m/s 751 mmHg 68%
04:00 +1°C° 0 mm 2 m/s 751 mmHg 71%
05:00 -1°C° 0 mm 3 m/s 752 mmHg 72%
06:00 -1°C° 0 mm 3 m/s 752 mmHg 73%
07:00 -1°C° 0 mm 3 m/s 752 mmHg 74%
08:00 -1°C° 0 mm 4 m/s 753 mmHg 66%
09:00 0°C° 0 mm 4 m/s 753 mmHg 58%
10:00 +3°C° 0 mm 4 m/s 753 mmHg 50%
11:00 +4°C° 0 mm 4 m/s 753 mmHg 47%
12:00 +5°C° 0 mm 4 m/s 753 mmHg 43%
13:00 +6°C° 0 mm 4 m/s 753 mmHg 40%
14:00 +6°C° 0 mm 4 m/s 753 mmHg 40%
15:00 +6°C° 0 mm 4 m/s 753 mmHg 39%
16:00 +6°C° 0 mm 4 m/s 753 mmHg 39%
17:00 +4°C° 0 mm 3 m/s 753 mmHg 45%
18:00 +3°C° 0 mm 3 m/s 753 mmHg 50%
19:00 +3°C° 0 mm 2 m/s 754 mmHg 55%
20:00 +2°C° 0 mm 2 m/s 754 mmHg 56%
21:00 +2°C° 0 mm 2 m/s 755 mmHg 56%
22:00 +2°C° 0 mm 1 m/s 755 mmHg 57%
23:00 +2°C° 0 mm 1 m/s 755 mmHg 57%
Voir plus

Nous avons besoin de votre consentement

Meteoprog et ses fournisseurs de services peuvent stocker et accéder à des données personnelles telles que des cookies, des identifiants d'appareils ou d'autres technologies similaires sur votre appareil et traiter ces données pour personnaliser le contenu et les publicités, ainsi que pour fournir des fonctionnalités de médias sociaux et analyser le trafic.

  • Stocker et/ou accéder à des informations sur votre appareil

    Des cookies, des identifiants d'appareils ou d'autres informations peuvent être stockés ou accessibles sur votre appareil aux fins indiquées ci-dessus.

  • Annonces et contenus personnalisés, mesure des annonces et des contenus, connaissance de l'audience et développement de produits

    Les annonces et le contenu peuvent être personnalisés en fonction d'un profil. D'autres données peuvent être ajoutées pour mieux personnaliser les annonces et le contenu. Les performances des publicités et du contenu peuvent être mesurées. Il est possible d'obtenir des informations sur le public qui a vu les publicités et le contenu. Ces données peuvent être utilisées pour développer ou améliorer l'expérience de l'utilisateur, les systèmes et les logiciels.

En cliquant sur "J'accepte", vous autorisez l'utilisation de cookies, des identifiants d'appareils, des balises web ou d'autres technologies similaires. Vos paramètres peuvent être modifiés dans le navigateur de votre appareil.

Dans certains cas, des intérêts légitimes peuvent être invoqués plutôt qu'un consentement. Vous pouvez en savoir plus à ce sujet dans notre Politique de confidentialité et de cookies.